Weather History for KEET - February, 2013

Change the Weather History Date:

Tuesday, February 5, 2013

  Actual Average Record
Temperature  
Mean Temperature 53 °F 46 °F  
Max Temperature 62 °F 57 °F 77 °F (1957)
Min Temperature 43 °F 36 °F 14 °F (1966)
Degree Days  
Heating Degree Days 12 19  
Month to date heating degree days 99 95  
Since 1 July heating degree days 1446 1759  
Growing Degree Days 3 (Base 50)    
Moisture  
Dew Point 47 °F    
Average Humidity 78    
Maximum Humidity 93    
Minimum Humidity 62    
Precipitation  
Precipitation 0.00 in 0.20 in 1.45 in (1956)
Month to date precipitation 0.10 1.05  
Year to date precipitation 7.62 6.38  
Snow  
Snow 0.00 in - - ()
Month to date snowfall 0.0  
Since 1 July snowfall 0.9  
Snow Depth 0.00 in    
Sea Level Pressure  
Sea Level Pressure 30.03 in    
Wind  
Wind Speed 2 mph (NW)    
Max Wind Speed 9 mph    
Max Gust Speed 13 mph    
Visibility 7 miles    
Events Fog    
T = Trace of Precipitation, MM = Missing Value Source: NWS Daily Summary

Daily Weather History Graph

Daily Weather History Graph

Search for Another Location

Airport or City:

Trip Planner

Search our weather history database for the weather conditions in past years. The results will help you decide how hot, cold, wet, or windy it might be!

Date:

Astronomy

Feb. 05, 2013 Rise Set
Actual Time 6:39 AM CST 5:23 PM CST
Civil Twilight 6:13 AM CST 5:48 PM CST
Nautical Twilight 5:44 AM CST 6:18 PM CST
Astronomical Twilight 5:15 AM CST 6:47 PM CST
Moon 2:15 AM CST (2/5) 12:46 PM CST (2/5)
Length of Visible Light 11h 35m
Length of Day
10h 43m
Waning Crescent, 26% of the Moon is Illuminated
Feb 5
Waning Crescent
Feb 10
New
Feb 17
First Quarter
Feb 25
Full
Mar 4
Last Quarter

Hourly Weather History & Observations

Time (CST) Temp. Dew Point Humidity Pressure Visibility Wind Dir Wind Speed Gust Speed Precip Events Conditions
12:53 AM 45.0 °F 37.9 °F 76% 29.99 in 10.0 mi Calm Calm - N/A   Overcast
1:53 AM 45.0 °F 37.9 °F 76% 29.98 in 10.0 mi Calm Calm - N/A   Overcast
2:53 AM 45.0 °F 37.9 °F 76% 29.97 in 10.0 mi Calm Calm - N/A   Overcast
3:53 AM 44.1 °F 37.9 °F 79% 29.98 in 10.0 mi Calm Calm - N/A   Clear
4:53 AM 45.0 °F 39.0 °F 80% 29.98 in 10.0 mi Calm Calm - N/A   Overcast
5:53 AM 46.0 °F 39.9 °F 79% 30.00 in 10.0 mi Calm Calm - N/A   Overcast
6:53 AM 45.0 °F 39.0 °F 80% 30.01 in 10.0 mi Calm Calm - N/A   Partly Cloudy
7:53 AM 48.9 °F 41.0 °F 74% 30.04 in 10.0 mi Calm Calm - N/A   Overcast
8:53 AM 53.1 °F 44.1 °F 71% 30.04 in 10.0 mi Calm Calm - N/A   Mostly Cloudy
9:53 AM 57.9 °F 46.9 °F 67% 30.04 in 10.0 mi WSW 6.9 mph - N/A   Mostly Cloudy
10:19 AM 59.0 °F 46.4 °F 63% 30.05 in 10.0 mi SW 4.6 mph - N/A   Overcast
10:49 AM 57.2 °F 46.4 °F 67% 30.05 in 10.0 mi NNW 5.8 mph - N/A   Overcast
10:53 AM 59.0 °F 46.9 °F 64% 30.05 in 10.0 mi NNW 6.9 mph - N/A   Overcast
11:53 AM 57.9 °F 46.9 °F 67% 30.04 in 10.0 mi NW 3.5 mph - N/A   Overcast
12:53 PM 57.9 °F 48.0 °F 70% 30.01 in 10.0 mi NNW 3.5 mph - N/A   Overcast
1:53 PM 57.9 °F 48.9 °F 72% 30.01 in 10.0 mi NNW 5.8 mph - N/A   Overcast
2:53 PM 60.1 °F 50.0 °F 69% 29.99 in 10.0 mi Calm Calm - N/A   Partly Cloudy
3:53 PM 62.1 °F 50.0 °F 65% 29.98 in 10.0 mi Calm Calm - N/A   Partly Cloudy
4:53 PM 61.0 °F 51.1 °F 70% 29.99 in 10.0 mi NW 4.6 mph - N/A   Overcast
5:53 PM 57.0 °F 52.0 °F 83% 29.99 in 10.0 mi Calm Calm - N/A   Scattered Clouds
6:53 PM 54.0 °F 51.1 °F 90% 30.02 in 10.0 mi Calm Calm - N/A   Scattered Clouds
7:53 PM 52.0 °F 48.9 °F 89% 30.03 in 10.0 mi Calm Calm - N/A   Scattered Clouds
8:53 PM 52.0 °F 48.9 °F 89% 30.05 in 5.0 mi Calm Calm - N/A   Partly Cloudy
9:06 PM 53.6 °F 51.8 °F 94% 30.06 in 4.0 mi Calm Calm - N/A   Mostly Cloudy
9:15 PM 53.6 °F 51.8 °F 94% 30.06 in 1.5 mi Calm Calm - N/A   Overcast
9:24 PM 53.6 °F 51.8 °F 94% 30.06 in 0.2 mi Calm Calm - N/A Fog Fog
9:53 PM 53.1 °F 52.0 °F 96% 30.06 in 0.2 mi NW 4.6 mph - N/A Fog Fog
10:27 PM 53.6 °F 51.8 °F 94% 30.06 in 0.5 mi NW 6.9 mph - N/A Fog Fog
10:41 PM 53.6 °F 51.8 °F 94% 30.06 in 1.0 mi NNW 5.8 mph - N/A   Overcast
10:53 PM 53.1 °F 52.0 °F 96% 30.06 in 1.0 mi North 3.5 mph - N/A   Overcast
11:41 PM 53.6 °F 51.8 °F 94% 30.06 in 2.0 mi NNW 6.9 mph - N/A   Overcast
11:48 PM 53.6 °F 51.8 °F 94% 30.06 in 1.5 mi NNW 4.6 mph - N/A   Overcast
11:53 PM 53.1 °F 52.0 °F 96% 30.06 in 1.2 mi NNW 4.6 mph - N/A   Overcast